| time (UTC) | temp F | wind direction | speed MPH | gust MPH | rain 1hr in | rain 24hr in | rain mn in | humidity % | barometer mb |
| 20260508164102 | 72 | 71 | 3.0 | 8.0 | 0.00 | 0.00 | 0.00 | 69 | 1016.8 |
| 20260508163606 | 72 | 23 | 2.0 | 6.0 | 0.00 | 0.00 | 0.00 | 72 | 1016.8 |
| 20260508163105 | 72 | 34 | 3.0 | 7.0 | 0.00 | 0.00 | 0.00 | 71 | 1016.7 |
| 20260508162610 | 72 | 68 | 3.0 | 8.0 | 0.00 | 0.00 | 0.00 | 71 | 1016.9 |
| 20260508162104 | 72 | 87 | 3.0 | 8.0 | 0.00 | 0.00 | 0.00 | 72 | 1016.8 |
| 20260508161608 | 72 | 67 | 3.0 | 9.0 | 0.00 | 0.00 | 0.00 | 74 | 1016.8 |
| 20260508161105 | 71 | 47 | 5.0 | 9.0 | 0.00 | 0.00 | 0.00 | 75 | 1016.9 |
| 20260508160104 | 70 | 57 | 4.0 | 9.0 | 0.00 | 0.00 | 0.00 | 75 | 1017.1 |
| 20260508155607 | 70 | 63 | 4.0 | 10.0 | 0.00 | 0.00 | 0.00 | 76 | 1017.1 |
| 20260508154607 | 70 | 323 | 4.0 | 9.0 | 0.00 | 0.00 | 0.00 | 77 | 1017.2 |
| 20260508154103 | 69 | 54 | 4.0 | 9.0 | 0.00 | 0.00 | 0.00 | 76 | 1017.2 |
| 20260508153606 | 69 | 30 | 3.0 | 7.0 | 0.00 | 0.00 | 0.00 | 75 | 1017.2 |
| 20260508153102 | 69 | 68 | 2.0 | 7.0 | 0.00 | 0.00 | 0.00 | 75 | 1017.2 |
| 20260508152606 | 69 | 70 | 3.0 | 7.0 | 0.00 | 0.00 | 0.00 | 75 | 1017.3 |
| 20260508152104 | 69 | 70 | 4.0 | 8.0 | 0.00 | 0.00 | 0.00 | 75 | 1017.2 |
| 20260508151607 | 69 | 65 | 3.0 | 8.0 | 0.00 | 0.01 | 0.00 | 75 | 1017.3 |
| 20260508151106 | 69 | 19 | 4.0 | 8.0 | 0.00 | 0.01 | 0.00 | 74 | 1017.3 |
| 20260508150608 | 69 | 17 | 3.0 | 10.0 | 0.00 | 0.01 | 0.00 | 73 | 1017.2 |
| 20260508145605 | 69 | 51 | 3.0 | 6.0 | 0.00 | 0.02 | 0.00 | 74 | 1017.3 |
| 20260508145102 | 69 | 61 | 4.0 | 8.0 | 0.00 | 0.02 | 0.00 | 74 | 1017.2 |
| 20260508144605 | 68 | 50 | 4.0 | 8.0 | 0.00 | 0.03 | 0.00 | 74 | 1017.1 |
| 20260508144104 | 68 | 74 | 3.0 | 7.0 | 0.00 | 0.04 | 0.00 | 74 | 1017.2 |
| 20260508143605 | 68 | 28 | 3.0 | 6.0 | 0.00 | 0.05 | 0.00 | 74 | 1017.4 |
| 20260508143103 | 68 | 13 | 2.0 | 5.0 | 0.00 | 0.06 | 0.00 | 73 | 1017.4 |
| 20260508142606 | 68 | 67 | 2.0 | 6.0 | 0.00 | 0.09 | 0.00 | 74 | 1017.4 |
| 20260508142105 | 68 | 68 | 3.0 | 7.0 | 0.00 | 0.11 | 0.00 | 74 | 1017.3 |
| 20260508141555 | 68 | 15 | 4.0 | 9.0 | 0.00 | 0.13 | 0.00 | 74 | 1017.5 |
| 20260508141052 | 68 | 50 | 4.0 | 9.0 | 0.00 | 0.15 | 0.00 | 74 | 1017.5 |
| 20260508140042 | 67 | 24 | 4.0 | 8.0 | 0.00 | 0.17 | 0.00 | 75 | 1017.1 |
| 20260508135542 | 67 | 27 | 3.0 | 8.0 | 0.00 | 0.17 | 0.00 | 75 | 1017.1 |
| 20260508134541 | 67 | 351 | 3.0 | 5.0 | 0.00 | 0.17 | 0.00 | 75 | 1017.3 |
| 20260508134043 | 67 | 2 | 3.0 | 7.0 | 0.00 | 0.17 | 0.00 | 76 | 1017.3 |
| 20260508133537 | 66 | 10 | 2.0 | 8.0 | 0.00 | 0.18 | 0.00 | 76 | 1017.1 |
| 20260508133035 | 66 | 346 | 2.0 | 8.0 | 0.00 | 0.18 | 0.00 | 76 | 1017.0 |
| 20260508132537 | 66 | 45 | 3.0 | 10.0 | 0.00 | 0.18 | 0.00 | 76 | 1017.0 |
| 20260508132036 | 66 | 51 | 4.0 | 10.0 | 0.00 | 0.18 | 0.00 | 75 | 1016.8 |
| 20260508131536 | 66 | 356 | 4.0 | 7.0 | 0.00 | 0.18 | 0.00 | 76 | 1016.8 |
| 20260508131035 | 66 | 0 | 3.0 | 7.0 | 0.00 | 0.19 | 0.00 | 75 | 1016.9 |
| 20260508130037 | 66 | 17 | 3.0 | 6.0 | 0.00 | 0.21 | 0.00 | 75 | 1016.8 |
| 20260508125534 | 66 | 33 | 2.0 | 6.0 | 0.00 | 0.22 | 0.00 | 75 | 1016.8 |
| 20260508123528 | 66 | 20 | 5.0 | 11.0 | 0.00 | 0.27 | 0.00 | 77 | 1016.4 |
| 20260508123029 | 66 | 331 | 4.0 | 11.0 | 0.00 | 0.29 | 0.00 | 77 | 1016.6 |
| 20260508122535 | 66 | 351 | 3.0 | 8.0 | 0.00 | 0.30 | 0.00 | 77 | 1016.7 |
| 20260508121024 | 66 | 3 | 2.0 | 4.0 | 0.00 | 0.33 | 0.00 | 78 | 1016.0 |
| 20260508120526 | 66 | 3 | 2.0 | 5.0 | 0.00 | 0.33 | 0.00 | 78 | 1016.0 |
| 20260508120025 | 66 | 356 | 2.0 | 6.0 | 0.00 | 0.33 | 0.00 | 77 | 1016.1 |
| 20260508115523 | 66 | 351 | 2.0 | 6.0 | 0.00 | 0.33 | 0.00 | 78 | 1016.2 |
| 20260508115022 | 66 | 356 | 2.0 | 5.0 | 0.00 | 0.33 | 0.00 | 78 | 1016.1 |
| 20260508114033 | 66 | 356 | 2.0 | 4.0 | 0.00 | 0.33 | 0.00 | 78 | 1015.9 |
| 20260508113536 | 65 | 5 | 2.0 | 4.0 | 0.00 | 0.33 | 0.00 | 78 | 1015.9 |
| 20260508113028 | 65 | 5 | 1.0 | 4.0 | 0.00 | 0.33 | 0.00 | 78 | 1015.9 |
| 20260508112519 | 65 | 20 | 1.0 | 3.0 | 0.00 | 0.33 | 0.00 | 77 | 1015.9 |
| 20260508112021 | 65 | 20 | 2.0 | 3.0 | 0.00 | 0.33 | 0.00 | 77 | 1015.7 |
| 20260508111017 | 65 | 20 | 1.0 | 4.0 | 0.00 | 0.33 | 0.00 | 76 | 1015.4 |
| 20260508110515 | 65 | 20 | 1.0 | 4.0 | 0.00 | 0.33 | 0.00 | 76 | 1015.2 |
| 20260508110016 | 65 | 20 | 2.0 | 4.0 | 0.00 | 0.33 | 0.00 | 77 | 1015.3 |
| 20260508105517 | 65 | 20 | 2.0 | 3.0 | 0.00 | 0.33 | 0.00 | 78 | 1015.3 |
| 20260508105014 | 65 | 20 | 2.0 | 6.0 | 0.00 | 0.33 | 0.00 | 78 | 1015.2 |
| 20260508104513 | 65 | 21 | 1.0 | 6.0 | 0.00 | 0.33 | 0.00 | 78 | 1015.0 |
| 20260508104022 | 65 | 40 | 1.0 | 2.0 | 0.00 | 0.33 | 0.00 | 79 | 1014.9 |
| 20260508103519 | 65 | 40 | 1.0 | 3.0 | 0.00 | 0.33 | 0.00 | 78 | 1015.0 |
| 20260508102504 | 65 | 40 | 1.0 | 4.0 | 0.00 | 0.33 | 0.00 | 80 | 1014.7 |
| 20260508101958 | 65 | 40 | 1.0 | 4.0 | 0.00 | 0.33 | 0.00 | 80 | 1014.8 |
| 20260508101453 | 66 | 40 | 0.0 | 2.0 | 0.00 | 0.33 | 0.00 | 80 | 1014.9 |
| 20260508100455 | 66 | 40 | 0.0 | 2.0 | 0.00 | 0.33 | 0.00 | 78 | 1014.7 |
| 20260508095951 | 66 | 40 | 0.0 | 2.0 | 0.00 | 0.33 | 0.00 | 77 | 1014.6 |
| 20260508095449 | 66 | 40 | 0.0 | 2.0 | 0.00 | 0.33 | 0.00 | 77 | 1014.5 |
| 20260508094442 | 67 | 40 | 1.0 | 3.0 | 0.00 | 0.33 | 0.00 | 75 | 1014.4 |
| 20260508093940 | 67 | 40 | 1.0 | 4.0 | 0.00 | 0.33 | 0.00 | 75 | 1014.3 |
| 20260508093440 | 67 | 40 | 2.0 | 4.0 | 0.00 | 0.33 | 0.00 | 75 | 1014.3 |
| 20260508092935 | 67 | 40 | 1.0 | 3.0 | 0.00 | 0.33 | 0.00 | 75 | 1014.4 |
| 20260508092435 | 67 | 40 | 1.0 | 3.0 | 0.00 | 0.33 | 0.00 | 75 | 1014.4 |
| 20260508091936 | 67 | 40 | 2.0 | 4.0 | 0.00 | 0.33 | 0.00 | 75 | 1014.4 |
| 20260508091436 | 67 | 40 | 2.0 | 4.0 | 0.00 | 0.33 | 0.00 | 75 | 1014.2 |
| 20260508090934 | 67 | 40 | 2.0 | 3.0 | 0.00 | 0.33 | 0.00 | 75 | 1014.2 |
| 20260508090439 | 67 | 40 | 1.0 | 3.0 | 0.00 | 0.33 | 0.00 | 74 | 1014.1 |
| 20260508085936 | 67 | 40 | 1.0 | 4.0 | 0.00 | 0.33 | 0.00 | 75 | 1014.3 |
| 20260508085433 | 68 | 40 | 1.0 | 4.0 | 0.00 | 0.33 | 0.00 | 74 | 1014.3 |
| 20260508084435 | 68 | 40 | 2.0 | 5.0 | 0.00 | 0.33 | 0.00 | 74 | 1014.1 |
| 20260508083933 | 68 | 346 | 2.0 | 4.0 | 0.00 | 0.33 | 0.00 | 75 | 1014.0 |
| 20260508082930 | 68 | 346 | 2.0 | 5.0 | 0.00 | 0.33 | 0.00 | 75 | 1014.1 |
| 20260508082430 | 68 | 346 | 3.0 | 5.0 | 0.00 | 0.33 | 0.00 | 76 | 1014.1 |
| 20260508081930 | 68 | 336 | 3.0 | 8.0 | 0.00 | 0.33 | 0.00 | 76 | 1014.2 |
| 20260508081427 | 68 | 351 | 3.0 | 8.0 | 0.00 | 0.33 | 0.00 | 77 | 1014.1 |
| 20260508080927 | 68 | 30 | 3.0 | 6.0 | 0.00 | 0.33 | 0.00 | 78 | 1013.7 |
| 20260508080429 | 68 | 13 | 3.0 | 6.0 | 0.00 | 0.33 | 0.00 | 78 | 1014.0 |
| 20260508075927 | 68 | 1 | 3.0 | 7.0 | 0.00 | 0.33 | 0.00 | 79 | 1013.9 |
| 20260508074926 | 68 | 25 | 2.0 | 4.0 | 0.00 | 0.33 | 0.00 | 81 | 1014.1 |
| 20260508074430 | 68 | 25 | 3.0 | 8.0 | 0.00 | 0.33 | 0.00 | 81 | 1013.9 |
| 20260508073928 | 69 | 18 | 3.0 | 8.0 | 0.00 | 0.33 | 0.00 | 81 | 1014.1 |
| 20260508073424 | 69 | 20 | 3.0 | 8.0 | 0.00 | 0.33 | 0.00 | 81 | 1014.2 |
| 20260508072421 | 69 | 0 | 2.0 | 5.0 | 0.00 | 0.33 | 0.00 | 81 | 1014.0 |
| 20260508071925 | 69 | 8 | 3.0 | 5.0 | 0.00 | 0.33 | 0.00 | 81 | 1013.9 |
| 20260508070422 | 70 | 341 | 3.0 | 8.0 | 0.00 | 0.33 | 0.00 | 80 | 1014.2 |
| 20260508065921 | 70 | 318 | 4.0 | 10.0 | 0.00 | 0.33 | 0.00 | 80 | 1014.2 |
| 20260508065419 | 70 | 356 | 5.0 | 11.0 | 0.00 | 0.33 | 0.00 | 80 | 1014.0 |
| 20260508064420 | 71 | 336 | 5.0 | 12.0 | 0.00 | 0.33 | 0.00 | 80 | 1014.1 |
| 20260508063919 | 71 | 326 | 6.0 | 12.0 | 0.00 | 0.33 | 0.00 | 81 | 1014.1 |
| 20260508063419 | 71 | 4 | 7.0 | 13.0 | 0.00 | 0.33 | 0.00 | 82 | 1014.1 |
| 20260508062417 | 72 | 4 | 9.0 | 14.0 | 0.00 | 0.33 | 0.00 | 84 | 1014.1 |
| 20260508061917 | 72 | 11 | 8.0 | 14.0 | 0.00 | 0.33 | 0.00 | 87 | 1014.1 |
| 20260508061419 | 72 | 356 | 6.0 | 14.0 | 0.00 | 0.33 | 0.00 | 89 | 1014.1 |
| 20260508060917 | 73 | 0 | 5.0 | 13.0 | 0.00 | 0.33 | 0.00 | 90 | 1014.1 |
| 20260508060418 | 73 | 9 | 5.0 | 9.0 | 0.00 | 0.33 | 0.00 | 90 | 1014.1 |
| 20260508055918 | 73 | 330 | 6.0 | 12.0 | 0.00 | 0.33 | 0.00 | 91 | 1014.1 |
| 20260508055419 | 73 | 320 | 5.0 | 12.0 | 0.00 | 0.33 | 0.00 | 91 | 1014.2 |
| 20260508054921 | 73 | 306 | 3.0 | 8.0 | 0.00 | 0.33 | 0.00 | 91 | 1014.0 |
| 20260508053919 | 73 | 296 | 3.0 | 9.0 | 0.00 | 0.33 | 0.00 | 92 | 1014.1 |
| 20260508053419 | 73 | 265 | 3.0 | 8.0 | 0.00 | 0.33 | 0.00 | 92 | 1014.2 |
| 20260508052931 | 73 | 256 | 2.0 | 4.0 | 0.00 | 0.33 | 0.00 | 92 | 1014.1 |
| 20260508052418 | 73 | 256 | 2.0 | 4.0 | 0.00 | 0.33 | 0.00 | 92 | 1013.9 |
| 20260508051917 | 73 | 256 | 2.0 | 4.0 | 0.00 | 0.33 | 0.00 | 92 | 1013.8 |
| 20260508051418 | 73 | 248 | 2.0 | 4.0 | 0.00 | 0.33 | 0.00 | 92 | 1013.8 |
| 20260508050918 | 73 | 247 | 1.0 | 3.0 | 0.00 | 0.33 | 0.00 | 92 | 1013.7 |
| 20260508050418 | 73 | 247 | 1.0 | 3.0 | 0.00 | 0.33 | 0.00 | 91 | 1013.7 |
| 20260508045416 | 73 | 247 | 1.0 | 4.0 | 0.00 | 0.33 | 0.00 | 91 | 1013.5 |
| 20260508044917 | 73 | 247 | 2.0 | 4.0 | 0.00 | 0.33 | 0.00 | 91 | 1013.6 |
| 20260508043416 | 73 | 241 | 1.0 | 3.0 | 0.00 | 0.33 | 0.00 | 90 | 1013.6 |
| 20260508042914 | 73 | 240 | 1.0 | 3.0 | 0.00 | 0.33 | 0.00 | 90 | 1013.4 |
| 20260508041910 | 74 | 240 | 2.0 | 5.0 | 0.00 | 0.33 | 0.00 | 90 | 1013.6 |
| 20260508041410 | 74 | 241 | 2.0 | 3.0 | 0.00 | 0.33 | 0.00 | 90 | 1013.6 |
| 20260508040908 | 74 | 241 | 2.0 | 3.0 | 0.00 | 0.33 | 0.00 | 90 | 1013.7 |
| 20260508040410 | 74 | 241 | 2.0 | 3.0 | 0.00 | 0.33 | 0.00 | 89 | 1013.6 |
| 20260508035911 | 74 | 241 | 2.0 | 3.0 | 0.00 | 0.33 | 0.33 | 89 | 1013.5 |
| 20260508034909 | 74 | 241 | 1.0 | 4.0 | 0.00 | 0.33 | 0.33 | 89 | 1013.3 |
| 20260508034412 | 74 | 241 | 2.0 | 4.0 | 0.00 | 0.33 | 0.33 | 89 | 1013.3 |
| 20260508032910 | 74 | 241 | 2.0 | 5.0 | 0.00 | 0.33 | 0.33 | 89 | 1013.7 |
| 20260508032414 | 74 | 241 | 2.0 | 5.0 | 0.00 | 0.33 | 0.33 | 89 | 1013.7 |
| 20260508031910 | 74 | 253 | 2.0 | 3.0 | 0.00 | 0.33 | 0.33 | 89 | 1013.7 |
| 20260508031407 | 74 | 254 | 1.0 | 3.0 | 0.00 | 0.33 | 0.33 | 88 | 1013.6 |
| 20260508030905 | 74 | 254 | 2.0 | 7.0 | 0.00 | 0.33 | 0.33 | 88 | 1013.6 |
| 20260508030403 | 74 | 254 | 2.0 | 7.0 | 0.00 | 0.33 | 0.33 | 88 | 1013.6 |
| 20260508024904 | 74 | 220 | 2.0 | 4.0 | 0.00 | 0.33 | 0.33 | 88 | 1013.6 |
| 20260508024358 | 74 | 219 | 2.0 | 5.0 | 0.00 | 0.33 | 0.33 | 88 | 1013.5 |
| 20260508023855 | 74 | 217 | 2.0 | 5.0 | 0.00 | 0.33 | 0.33 | 88 | 1013.4 |
| 20260508023355 | 74 | 218 | 2.0 | 4.0 | 0.00 | 0.33 | 0.33 | 88 | 1013.3 |
| 20260508022857 | 74 | 218 | 2.0 | 4.0 | 0.00 | 0.33 | 0.33 | 88 | 1013.2 |
| 20260508022356 | 74 | 219 | 2.0 | 4.0 | 0.00 | 0.33 | 0.33 | 87 | 1013.1 |
| 20260508021857 | 74 | 219 | 2.0 | 4.0 | 0.00 | 0.33 | 0.33 | 87 | 1013.0 |
| 20260508015857 | 75 | 227 | 2.0 | 7.0 | 0.00 | 0.33 | 0.33 | 87 | 1012.7 |
| 20260508015355 | 75 | 225 | 2.0 | 5.0 | 0.00 | 0.33 | 0.33 | 86 | 1012.7 |
| 20260508014856 | 75 | 225 | 2.0 | 5.0 | 0.00 | 0.33 | 0.33 | 86 | 1012.7 |
| 20260508013855 | 75 | 230 | 2.0 | 5.0 | 0.00 | 0.33 | 0.33 | 86 | 1012.6 |
| 20260508012349 | 75 | 242 | 1.0 | 2.0 | 0.00 | 0.33 | 0.33 | 86 | 1012.5 |
| 20260508011850 | 76 | 242 | 1.0 | 2.0 | 0.00 | 0.33 | 0.33 | 86 | 1012.5 |
| 20260508011349 | 76 | 242 | 1.0 | 2.0 | 0.00 | 0.33 | 0.33 | 85 | 1012.4 |
| 20260508010850 | 76 | 242 | 1.0 | 2.0 | 0.00 | 0.33 | 0.33 | 85 | 1012.2 |
| 20260508010350 | 76 | 242 | 1.0 | 3.0 | 0.00 | 0.33 | 0.33 | 84 | 1012.3 |
| 20260508005845 | 76 | 242 | 1.0 | 3.0 | 0.00 | 0.33 | 0.33 | 84 | 1012.2 |
| 20260508005346 | 76 | 242 | 1.0 | 3.0 | 0.00 | 0.33 | 0.33 | 84 | 1012.1 |
| 20260508004845 | 76 | 242 | 2.0 | 3.0 | 0.00 | 0.33 | 0.33 | 83 | 1012.2 |
| 20260508004346 | 77 | 242 | 1.0 | 3.0 | 0.00 | 0.33 | 0.33 | 83 | 1012.1 |
| 20260508003346 | 77 | 242 | 1.0 | 3.0 | 0.00 | 0.33 | 0.33 | 82 | 1012.0 |
| 20260508002845 | 77 | 242 | 2.0 | 4.0 | 0.00 | 0.33 | 0.33 | 82 | 1012.0 |
| 20260508002347 | 77 | 252 | 2.0 | 6.0 | 0.00 | 0.33 | 0.33 | 81 | 1012.0 |
| 20260508001845 | 78 | 253 | 3.0 | 8.0 | 0.00 | 0.33 | 0.33 | 81 | 1012.0 |
| 20260508001344 | 78 | 232 | 4.0 | 8.0 | 0.00 | 0.33 | 0.33 | 81 | 1012.0 |
| 20260508000845 | 78 | 248 | 4.0 | 8.0 | 0.00 | 0.33 | 0.33 | 80 | 1012.0 |
| 20260508000345 | 78 | 252 | 4.0 | 8.0 | 0.00 | 0.33 | 0.33 | 80 | 1012.0 |
| 20260507235847 | 78 | 235 | 4.0 | 10.0 | 0.00 | 0.33 | 0.33 | 79 | 1012.0 |
| 20260507235348 | 78 | 232 | 5.0 | 11.0 | 0.00 | 0.33 | 0.33 | 79 | 1012.0 |
| 20260507234848 | 79 | 230 | 6.0 | 16.0 | 0.00 | 0.33 | 0.33 | 78 | 1012.1 |
| 20260507232843 | 79 | 256 | 7.0 | 18.0 | 0.00 | 0.33 | 0.33 | 77 | 1011.9 |
| 20260507232343 | 79 | 239 | 7.0 | 18.0 | 0.00 | 0.33 | 0.33 | 77 | 1012.1 |
| 20260507231840 | 79 | 227 | 7.0 | 17.0 | 0.00 | 0.33 | 0.33 | 77 | 1012.0 |
| 20260507230846 | 80 | 223 | 7.0 | 14.0 | 0.00 | 0.33 | 0.33 | 77 | 1012.0 |
| 20260507230339 | 80 | 255 | 7.0 | 14.0 | 0.00 | 0.33 | 0.33 | 77 | 1012.0 |
| 20260507225839 | 80 | 244 | 8.0 | 18.0 | 0.00 | 0.33 | 0.33 | 76 | 1011.8 |
| 20260507225346 | 80 | 233 | 8.0 | 18.0 | 0.00 | 0.33 | 0.33 | 76 | 1011.7 |
| 20260507224845 | 80 | 259 | 7.0 | 15.0 | 0.00 | 0.33 | 0.33 | 76 | 1011.7 |
| 20260507224341 | 80 | 239 | 7.0 | 15.0 | 0.00 | 0.33 | 0.33 | 76 | 1011.8 |
| 20260507223837 | 80 | 206 | 7.0 | 15.0 | 0.00 | 0.33 | 0.33 | 76 | 1011.7 |
| 20260507223335 | 80 | 264 | 6.0 | 15.0 | 0.00 | 0.33 | 0.33 | 76 | 1011.7 |
| 20260507222837 | 80 | 222 | 6.0 | 15.0 | 0.00 | 0.33 | 0.33 | 76 | 1011.6 |
| 20260507222336 | 80 | 229 | 6.0 | 18.0 | 0.00 | 0.33 | 0.33 | 76 | 1011.6 |
| 20260507221833 | 80 | 214 | 7.0 | 18.0 | 0.00 | 0.33 | 0.33 | 76 | 1011.8 |
| 20260507220829 | 80 | 270 | 7.0 | 15.0 | 0.00 | 0.33 | 0.33 | 75 | 1011.8 |
| 20260507220333 | 80 | 242 | 8.0 | 18.0 | 0.00 | 0.33 | 0.33 | 76 | 1011.8 |
| 20260507215833 | 80 | 200 | 9.0 | 20.0 | 0.00 | 0.33 | 0.33 | 75 | 1011.7 |
| 20260507215333 | 80 | 227 | 8.0 | 20.0 | 0.00 | 0.33 | 0.33 | 75 | 1011.8 |
| 20260507214835 | 80 | 223 | 6.0 | 17.0 | 0.00 | 0.33 | 0.33 | 75 | 1011.8 |
| 20260507214331 | 80 | 281 | 8.0 | 17.0 | 0.00 | 0.33 | 0.33 | 75 | 1011.7 |
| 20260507213833 | 80 | 238 | 8.0 | 17.0 | 0.00 | 0.33 | 0.33 | 74 | 1011.7 |
| 20260507213329 | 80 | 223 | 7.0 | 17.0 | 0.00 | 0.33 | 0.33 | 74 | 1011.6 |
| 20260507212832 | 80 | 249 | 8.0 | 18.0 | 0.00 | 0.33 | 0.33 | 74 | 1011.5 |
| 20260507212333 | 80 | 228 | 8.0 | 18.0 | 0.00 | 0.33 | 0.33 | 74 | 1011.6 |
| 20260507211902 | 80 | 208 | 8.0 | 14.0 | 0.00 | 0.33 | 0.33 | 74 | 1011.6 |
| 20260507211340 | 80 | 279 | 9.0 | 20.0 | 0.00 | 0.33 | 0.33 | 74 | 1011.6 |
| 20260507210829 | 80 | 237 | 9.0 | 20.0 | 0.00 | 0.33 | 0.33 | 73 | 1011.5 |
| 20260507210349 | 80 | 204 | 8.0 | 19.0 | 0.00 | 0.33 | 0.33 | 73 | 1011.4 |
| 20260507205838 | 80 | 200 | 9.0 | 20.0 | 0.00 | 0.33 | 0.33 | 74 | 1011.5 |
| 20260507205342 | 79 | 239 | 10.0 | 20.0 | 0.00 | 0.33 | 0.33 | 73 | 1011.5 |
| 20260507204329 | 80 | 232 | 11.0 | 23.0 | 0.00 | 0.33 | 0.33 | 72 | 1011.6 |
| 20260507202837 | 81 | 247 | 9.0 | 16.0 | 0.00 | 0.33 | 0.33 | 72 | 1011.6 |
| 20260507202324 | 80 | 279 | 8.0 | 19.0 | 0.00 | 0.33 | 0.33 | 74 | 1011.6 |
| 20260507201819 | 80 | 248 | 8.0 | 19.0 | 0.00 | 0.33 | 0.33 | 74 | 1011.7 |
| 20260507201332 | 81 | 249 | 8.0 | 18.0 | 0.00 | 0.33 | 0.33 | 74 | 1011.6 |
| 20260507200304 | 79 | 221 | 8.0 | 19.0 | 0.00 | 0.33 | 0.33 | 77 | 1011.8 |
| 20260507195817 | 79 | 209 | 8.0 | 19.0 | 0.00 | 0.33 | 0.33 | 78 | 1012.0 |
| 20260507195305 | 79 | 250 | 9.0 | 22.0 | 0.00 | 0.33 | 0.33 | 78 | 1012.1 |
| 20260507194804 | 79 | 194 | 10.0 | 22.0 | 0.00 | 0.33 | 0.33 | 77 | 1012.1 |
| 20260507194308 | 79 | 200 | 10.0 | 21.0 | 0.00 | 0.33 | 0.33 | 77 | 1012.0 |
| 20260507193808 | 79 | 272 | 10.0 | 21.0 | 0.00 | 0.33 | 0.33 | 78 | 1011.9 |
| 20260507193311 | 78 | 221 | 9.0 | 21.0 | 0.00 | 0.33 | 0.33 | 77 | 1011.8 |
| 20260507192812 | 78 | 250 | 8.0 | 20.0 | 0.00 | 0.33 | 0.33 | 80 | 1011.8 |
| 20260507192307 | 77 | 233 | 9.0 | 20.0 | 0.00 | 0.33 | 0.33 | 81 | 1011.8 |
| 20260507191807 | 77 | 252 | 9.0 | 17.0 | 0.00 | 0.33 | 0.33 | 80 | 1011.9 |
| 20260507191305 | 77 | 256 | 8.0 | 17.0 | 0.00 | 0.33 | 0.33 | 81 | 1012.1 |
| 20260507190802 | 77 | 264 | 8.0 | 17.0 | 0.00 | 0.33 | 0.33 | 81 | 1012.2 |
| 20260507190303 | 77 | 231 | 8.0 | 16.0 | 0.00 | 0.33 | 0.33 | 81 | 1012.2 |
| 20260507185800 | 76 | 250 | 7.0 | 13.0 | 0.00 | 0.33 | 0.33 | 81 | 1012.2 |
| 20260507185300 | 76 | 196 | 7.0 | 13.0 | 0.00 | 0.33 | 0.33 | 82 | 1012.3 |
| 20260507184758 | 76 | 236 | 8.0 | 16.0 | 0.00 | 0.33 | 0.33 | 82 | 1012.2 |
| 20260507184258 | 76 | 212 | 9.0 | 19.0 | 0.00 | 0.33 | 0.33 | 82 | 1012.4 |
| 20260507183800 | 76 | 225 | 10.0 | 21.0 | 0.00 | 0.33 | 0.33 | 82 | 1012.4 |
| 20260507183259 | 76 | 234 | 9.0 | 21.0 | 0.00 | 0.33 | 0.33 | 83 | 1012.5 |
| 20260507182258 | 76 | 206 | 7.0 | 15.0 | 0.00 | 0.33 | 0.33 | 82 | 1012.4 |
| 20260507181758 | 76 | 214 | 8.0 | 18.0 | 0.00 | 0.33 | 0.33 | 83 | 1012.6 |
| 20260507181258 | 76 | 213 | 8.0 | 18.0 | 0.00 | 0.33 | 0.33 | 82 | 1012.6 |
| 20260507180258 | 76 | 242 | 7.0 | 15.0 | 0.00 | 0.33 | 0.33 | 83 | 1012.5 |
| 20260507175801 | 76 | 224 | 6.0 | 18.0 | 0.00 | 0.33 | 0.33 | 83 | 1012.6 |
| 20260507175259 | 76 | 223 | 7.0 | 18.0 | 0.00 | 0.33 | 0.33 | 83 | 1012.5 |
| 20260507174754 | 76 | 196 | 8.0 | 17.0 | 0.00 | 0.33 | 0.33 | 84 | 1012.6 |
| 20260507173752 | 76 | 173 | 7.0 | 14.0 | 0.00 | 0.33 | 0.33 | 83 | 1012.6 |
| 20260507173302 | 76 | 183 | 9.0 | 18.0 | 0.00 | 0.33 | 0.33 | 83 | 1012.6 |
| 20260507172253 | 76 | 214 | 8.0 | 17.0 | 0.00 | 0.33 | 0.33 | 82 | 1012.8 |
| 20260507171752 | 76 | 201 | 8.0 | 19.0 | 0.00 | 0.33 | 0.33 | 82 | 1013.0 |
| 20260507171254 | 76 | 231 | 8.0 | 19.0 | 0.00 | 0.33 | 0.33 | 82 | 1013.2 |
| 20260507170748 | 76 | 241 | 7.0 | 18.0 | 0.00 | 0.33 | 0.33 | 83 | 1013.4 |
| 20260507170249 | 75 | 219 | 8.0 | 18.0 | 0.00 | 0.33 | 0.33 | 83 | 1013.0 |
| 20260507165748 | 75 | 198 | 8.0 | 18.0 | 0.00 | 0.33 | 0.33 | 83 | 1012.9 |
| 20260507165248 | 75 | 205 | 7.0 | 14.0 | 0.00 | 0.33 | 0.33 | 84 | 1012.8 |
| 20260507164750 | 75 | 228 | 6.0 | 12.0 | 0.00 | 0.33 | 0.33 | 83 | 1012.9 |